Weather in Yurivka

Ukraine / Dnipropetrovsk Region     48°44′08″N   36°01′01″E
temp.,
°C
wind,
m/s
gust,
m/s
humid.,
%
clouds,
%
prec.,
mm/h
press.,
hPa
HPBL,
m
21 january, fri
fri2123:00−3sse7158799 0.0 1012416
02:00−1s71597100 0.3 1008583
05:000sw6109793 0.6 1006569
08:00−3sw51095100 0.6 1007281
11:00−1wsw61095100 0.8 1008721
14:00−1wsw610795 1.3 1009846
17:00−4sw410875 0.0 1009199
20:00−5sw512905 0.0 1010312
22 january, sat
sat2223:00−6sw410925 0.0 1010222
02:00−7sw49957 0.0 1010178
05:00−8ssw389643 0.0 1010164
08:00−8ssw499770 0.0 1011216
11:00−4sw5889100 0.0 1012515
14:00−3sw589099 0.2 1012771
17:00−4sw489397 0.1 1014314
20:00−5ssw259594 0.1 101587
23 january, sun
sun2323:00−5ssw119398 0.0 101615
02:00−7s119236 0.0 101710
05:00−10se119783 0.0 101810
08:00−8ene2395100 0.0 102047
11:00−4ne4686100 0.0 1020234
14:00−4nne5890100 0.0 1020397
17:00−6nne51193100 0.0 1022318
20:00−6nne61392100 0.0 1022370
24 january, mon
mon2423:00−6nne71594100 0.1 1022479
02:00−6nne71494100 0.8 1021529
05:00−5nne61395100 1.1 1020465
08:00−4nne61295100 2.5 1021468
11:00−2ne6992100 0.5 1022490
14:00−3ne589286 0.7 1022532
17:00−6nne3895100 0.0 1024156
20:00−5ne5996100 1.5 1025335
25 january, tue
tue2523:00−5nne4796100 1.4 1025242
02:00−7nne3596100 1.4 1024104
05:00−6nne3596100 0.1 1024145
08:00−6nne2396100 0.3 1024129
11:00−4nne1291100 0.1 1024227
14:00−3wnw2291100 0.1 1023321
17:00−5wsw1198100 0.1 102311
20:00−6wsw2398100 0.1 102357